Location: Champseau
(45.8333°N, 1.7667°E)
Time: 08:33:02
(UTC+00:00)

ITUPSAT 1 - Pass Details

Date: 07 December 2021
Orbit: 700 x 713 km, 98.6° (Epoch: 27 January)

Event Time Altitude Azimuth Distance (km) Brightness Sun altitude
Rises 06:15:30 0° 151° (SSE) 3,089 ? -10.9°
Reaches altitude 10° 06:17:47 10° 147° (SSE) 2,177 ? -10.5°
Maximum altitude 06:22:25 55° 71° (ENE) 859 ? -9.8°
Drops below altitude 10° 06:27:07 10° 354° (N) 2,199 ? -9.0°
Sets 06:29:26 0° 350° (N) 3,125 ? -8.7°
